| time (UTC) | temp F | wind direction | speed MPH | gust MPH | rain 1hr in | rain 24hr in | rain mn in | humidity % | barometer mb |
| 20260905204525 | 70 | 162 | 1.0 | 4.0 | 0.00 | 0.00 | 0.00 | 61 | 1012.7 |
| 20260905203021 | 68 | 164 | 1.0 | 2.0 | 0.00 | 0.00 | 0.00 | 66 | 1012.9 |
| 20260905201517 | 68 | 108 | 1.0 | 3.0 | 0.00 | 0.00 | 0.00 | 69 | 1012.8 |
| 20260905200014 | 68 | 80 | 2.0 | 7.0 | 0.00 | 0.00 | 0.00 | 69 | 1012.6 |
| 20260905194509 | 66 | 309 | 1.0 | 3.0 | 0.00 | 0.00 | 0.00 | 74 | 1012.8 |
| 20260905193007 | 66 | 69 | 1.0 | 4.0 | 0.00 | 0.00 | 0.00 | 75 | 1013.0 |
| 20260905191507 | 66 | 290 | 1.0 | 5.0 | 0.00 | 0.00 | 0.00 | 73 | 1013.1 |
| 20260905190007 | 66 | 84 | 1.0 | 3.0 | 0.00 | 0.00 | 0.00 | 75 | 1013.4 |
| 20260905184559 | 64 | 271 | 0.0 | 4.0 | 0.00 | 0.00 | 0.00 | 80 | 1013.4 |
| 20260905183058 | 63 | 94 | 0.0 | 3.0 | 0.00 | 0.00 | 0.00 | 81 | 1013.6 |
| 20260905181557 | 63 | 41 | 1.0 | 3.0 | 0.00 | 0.00 | 0.00 | 78 | 1013.7 |
| 20260905180058 | 62 | 26 | 0.0 | 3.0 | 0.00 | 0.00 | 0.00 | 83 | 1013.8 |
| 20260905174547 | 61 | 282 | 1.0 | 4.0 | 0.00 | 0.00 | 0.00 | 88 | 1013.9 |
| 20260905173043 | 59 | 95 | 0.0 | 2.0 | 0.00 | 0.00 | 0.00 | 90 | 1013.9 |
| 20260905171541 | 58 | 94 | 0.0 | 3.0 | 0.00 | 0.00 | 0.00 | 91 | 1014.0 |
| 20260905170046 | 57 | 76 | 1.0 | 2.0 | 0.00 | 0.00 | 0.00 | 95 | 1014.1 |
| 20260905164534 | 56 | 64 | 1.0 | 2.0 | 0.00 | 0.00 | 0.00 | 95 | 1013.9 |
| 20260905163031 | 55 | 65 | 0.0 | 2.0 | 0.00 | 0.00 | 0.00 | 96 | 1013.8 |
| 20260905161529 | 55 | 288 | 0.0 | 2.0 | 0.00 | 0.00 | 0.00 | 96 | 1013.7 |
| 20260905160039 | 55 | 295 | 0.0 | 1.0 | 0.00 | 0.00 | 0.00 | 97 | 1013.9 |
| 20260905154526 | 54 | 295 | 0.0 | 2.0 | 0.00 | 0.00 | 0.00 | 96 | 1013.7 |
| 20260905153035 | 54 | 299 | 0.0 | 2.0 | 0.00 | 0.00 | 0.00 | 96 | 1013.7 |
| 20260905151525 | 54 | 286 | 0.0 | 1.0 | 0.00 | 0.00 | 0.00 | 96 | 1013.8 |
| 20260905150023 | 54 | 286 | 0.0 | 0.0 | 0.00 | 0.00 | 0.00 | 97 | 1013.8 |
| 20260905144531 | 54 | 286 | 0.0 | 2.0 | 0.00 | 0.01 | 0.00 | 96 | 1013.7 |
| 20260905041513 | 53 | 311 | 0.0 | 0.0 | 0.00 | 0.03 | 0.03 | 93 | 1011.7 |
| 20260905040018 | 53 | 311 | 0.0 | 0.0 | 0.00 | 0.03 | 0.03 | 93 | 1011.5 |
| 20260905034509 | 54 | 311 | 0.0 | 0.0 | 0.00 | 0.03 | 0.03 | 93 | 1011.3 |
| 20260905033008 | 54 | 311 | 0.0 | 0.0 | 0.00 | 0.03 | 0.03 | 92 | 1011.2 |
| 20260905031506 | 55 | 311 | 0.0 | 0.0 | 0.00 | 0.03 | 0.03 | 92 | 1011.2 |
| 20260905030007 | 55 | 311 | 0.0 | 0.0 | 0.00 | 0.03 | 0.03 | 91 | 1011.2 |
| 20260905024512 | 56 | 311 | 0.0 | 0.0 | 0.00 | 0.03 | 0.03 | 90 | 1011.1 |
| 20260905023006 | 57 | 311 | 0.0 | 1.0 | 0.00 | 0.03 | 0.03 | 88 | 1011.1 |
| 20260905021507 | 58 | 311 | 0.0 | 1.0 | 0.00 | 0.03 | 0.03 | 87 | 1011.2 |
| 20260905020004 | 59 | 311 | 0.0 | 2.0 | 0.00 | 0.03 | 0.03 | 85 | 1011.1 |
| 20260905014503 | 59 | 126 | 0.0 | 1.0 | 0.00 | 0.03 | 0.03 | 85 | 1010.9 |
| 20260905013002 | 59 | 126 | 0.0 | 2.0 | 0.00 | 0.03 | 0.03 | 85 | 1010.8 |
| 20260905011501 | 59 | 103 | 0.0 | 3.0 | 0.00 | 0.03 | 0.03 | 85 | 1010.7 |
| 20260905010113 | 60 | 336 | 0.0 | 1.0 | 0.00 | 0.03 | 0.03 | 84 | 1010.5 |
| 20260905004612 | 60 | 335 | 0.0 | 2.0 | 0.00 | 0.03 | 0.03 | 82 | 1010.5 |
| 20260905003058 | 61 | 328 | 0.0 | 2.0 | 0.00 | 0.03 | 0.03 | 80 | 1010.5 |
| 20260905001557 | 62 | 97 | 0.0 | 3.0 | 0.00 | 0.03 | 0.03 | 79 | 1010.4 |
| 20260905000056 | 62 | 333 | 0.0 | 2.0 | 0.00 | 0.03 | 0.03 | 77 | 1010.4 |
| 20260904234554 | 62 | 9 | 1.0 | 4.0 | 0.00 | 0.03 | 0.03 | 75 | 1010.4 |
| 20260904233058 | 63 | 28 | 1.0 | 6.0 | 0.00 | 0.03 | 0.03 | 72 | 1010.3 |
| 20260904231552 | 62 | 278 | 1.0 | 6.0 | 0.00 | 0.03 | 0.03 | 76 | 1010.2 |
| 20260904230051 | 64 | 156 | 1.0 | 4.0 | 0.00 | 0.03 | 0.03 | 74 | 1010.1 |
| 20260904224552 | 64 | 179 | 1.0 | 6.0 | 0.00 | 0.03 | 0.03 | 70 | 1010.0 |
| 20260904223049 | 65 | 263 | 0.0 | 4.0 | 0.00 | 0.03 | 0.03 | 74 | 1009.7 |
| 20260904221553 | 65 | 53 | 1.0 | 5.0 | 0.00 | 0.03 | 0.03 | 69 | 1009.7 |
| 20260904220049 | 67 | 136 | 1.0 | 3.0 | 0.00 | 0.03 | 0.03 | 66 | 1009.4 |
| 20260904214545 | 66 | 303 | 1.0 | 5.0 | 0.00 | 0.06 | 0.03 | 66 | 1009.3 |
| 20260904213043 | 67 | 101 | 0.0 | 4.0 | 0.00 | 0.06 | 0.03 | 67 | 1009.2 |
| 20260904211540 | 66 | 242 | 1.0 | 4.0 | 0.00 | 0.06 | 0.03 | 70 | 1009.3 |
| 20260904210043 | 67 | 262 | 0.0 | 3.0 | 0.00 | 0.06 | 0.03 | 64 | 1009.1 |